Location: Saint-Hippolyte
(43.6394°N, 4.7559°E)
Time: 15:08:26
(UTC+00:00)

Cosmos 1892 - Pass Details

Date: 24 October 2020
Orbit: 504 x 523 km, 82.5° (Epoch: 24 November)

Event Time Altitude Azimuth Distance (km) Brightness Sun altitude
Rises 18:12:19 0° 357° (N) 2,661 6.4 -16.8°
Reaches altitude 10° 18:14:31 10° 3° (N) 1,770 5.4 -17.2°
Maximum altitude 18:18:17 48° 79° (ENE) 694 2.9 -17.9°
Enters shadow 18:19:03 41° 115° (ESE) 768 3.1 -18.0°
